DW6637 Weather Reports


Display with metric or nautical units.
time (UTC)temp
F
wind
direction
speed
MPH
gust
MPH
rain 1hr
in
rain 24hr
in
rain mn
in
humidity
%
barometer
mb
20181216224744 71 239 2.0 5.0 0.00 0.00 0.00 52 1018.3
20181216223126 72 249 1.0 4.0 0.00 0.00 0.00 44 1018.3
20181216221607 72 245 1.0 4.0 0.00 0.00 0.00 43 1017.8
20181216220136 72 248 0.0 2.0 0.00 0.00 0.00 43 1017.8
20181216214624 71 221 0.0 2.0 0.00 0.00 0.00 45 1017.9
20181216213140 71 293 0.0 2.0 0.00 0.00 0.00 42 1018.2
20181216211609 70 108 1.0 2.0 0.00 0.00 0.00 43 1018.3
20181216210149 69 290 0.0 3.0 0.00 0.00 0.00 46 1018.2
20181216204612 69 297 0.0 3.0 0.00 0.00 0.00 50 1018.7
20181216203034 68 212 0.0 3.0 0.00 0.00 0.00 50 1018.6
20181216201617 68 276 0.0 1.0 0.00 0.00 0.00 49 1018.7
20181216200039 68 221 0.0 2.0 0.00 0.00 0.00 53 1018.9
20181216194537 66 208 0.0 3.0 0.00 0.00 0.00 52 1019.3
20181216193046 66 218 0.0 3.0 0.00 0.00 0.00 55 1019.4
20181216191536 66 215 0.0 2.0 0.00 0.00 0.00 54 1019.4
20181216190046 66 89 0.0 4.0 0.00 0.00 0.00 52 1019.6
20181216184521 65 89 1.0 3.0 0.00 0.00 0.00 52 1019.9
20181216183014 64 100 1.0 2.0 0.00 0.00 0.00 53 1020.2
20181216181519 62 282 0.0 2.0 0.00 0.00 0.00 54 1020.4
20181216180006 62 113 1.0 3.0 0.00 0.00 0.00 52 1020.6
20181216174519 61 94 0.0 2.0 0.00 0.00 0.00 47 1020.7
20181216173138 59 67 1.0 2.0 0.00 0.00 0.00 46 1020.7
20181216171709 57 78 0.0 2.0 0.00 0.00 0.00 49 1020.8
20181216170155 56 71 1.0 3.0 0.00 0.00 0.00 52 1020.9
20181216164709 55 79 0.0 2.0 0.00 0.00 0.00 54 1020.8
20181216163117 53 68 1.0 2.0 0.00 0.00 0.00 55 1020.5
20181216161625 52 115 0.0 3.0 0.00 0.00 0.00 57 1020.3
20181216160104 51 98 0.0 2.0 0.00 0.00 0.00 60 1020.0
20181216154556 49 94 1.0 4.0 0.00 0.00 0.00 62 1019.6
20181216153059 48 86 2.0 5.0 0.00 0.00 0.00 64 1019.5
20181216151536 47 89 1.0 4.0 0.00 0.00 0.00 66 1019.4
20181216150110 46 86 0.0 1.0 0.00 0.00 0.00 69 1019.4
20181216144558 46 82 0.0 1.0 0.00 0.00 0.00 67 1019.2
20181216143040 47 80 1.0 2.0 0.00 0.00 0.00 66 1019.2
20181216141528 47 95 0.0 2.0 0.00 0.00 0.00 66 1019.0
20181216140044 47 69 1.0 3.0 0.00 0.00 0.00 67 1018.8
20181216134608 46 88 0.0 1.0 0.00 0.00 0.00 70 1018.7
20181216133118 46 83 0.0 1.0 0.00 0.00 0.00 69 1018.5
20181216131526 47 88 0.0 3.0 0.00 0.00 0.00 70 1018.5
20181216130121 46 75 1.0 2.0 0.00 0.00 0.00 73 1018.3
20181216124522 45 79 0.0 1.0 0.00 0.00 0.00 76 1018.3
20181216123023 45 79 0.0 1.0 0.00 0.00 0.00 77 1018.3
20181216121524 45 79 0.0 0.0 0.00 0.00 0.00 77 1018.5
20181216120123 45 79 0.0 0.0 0.00 0.00 0.00 76 1018.6
20181216114535 46 79 0.0 1.0 0.00 0.00 0.00 71 1018.4
20181216113034 48 79 0.0 0.0 0.00 0.00 0.00 68 1018.4
20181216111520 47 87 0.0 1.0 0.00 0.00 0.00 71 1018.5
20181216110008 47 87 0.0 0.0 0.00 0.00 0.00 70 1018.5
20181216104504 47 93 0.0 1.0 0.00 0.00 0.00 72 1018.6
20181216103003 47 93 0.0 1.0 0.00 0.00 0.00 73 1018.7
20181216101720 47 124 0.0 1.0 0.00 0.00 0.00 75 1018.6
20181216100132 46 128 0.0 0.0 0.00 0.00 0.00 75 1018.6
20181216094652 47 128 0.0 1.0 0.00 0.00 0.00 75 1018.5
20181216093311 47 129 0.0 0.0 0.00 0.00 0.00 74 1018.5
20181216091727 47 129 0.0 0.0 0.00 0.00 0.00 74 1018.3
20181216090116 48 129 0.0 0.0 0.00 0.00 0.00 72 1018.4
20181216084634 49 129 0.0 0.0 0.00 0.00 0.00 70 1018.3
20181216083142 51 129 0.0 0.0 0.00 0.00 0.00 65 1018.4
20181216081623 52 117 1.0 3.0 0.00 0.00 0.00 64 1018.4
20181216080053 52 89 0.0 3.0 0.00 0.00 0.00 66 1018.6
20181216074555 52 73 1.0 2.0 0.00 0.00 0.00 68 1018.6
20181216073051 52 91 0.0 1.0 0.00 0.00 0.00 69 1018.6
20181216071607 52 89 0.0 1.0 0.00 0.00 0.00 70 1018.6
20181216070110 51 103 1.0 2.0 0.00 0.00 0.00 74 1018.7
20181216064652 50 117 0.0 1.0 0.00 0.00 0.00 79 1018.8
20181216063116 50 117 0.0 0.0 0.00 0.00 0.00 76 1018.9
20181216061552 51 117 0.0 1.0 0.00 0.00 0.00 76 1018.9
20181216060138 51 117 0.0 0.0 0.00 0.00 0.00 74 1018.9
20181216054532 51 117 0.0 0.0 0.00 0.00 0.00 73 1019.0
20181216053100 52 118 0.0 0.0 0.00 0.00 0.00 72 1019.0
20181216051608 51 118 0.0 0.0 0.00 0.00 0.00 72 1018.8
20181216050051 52 118 0.0 0.0 0.00 0.00 0.00 71 1018.6
20181216044528 52 118 0.0 0.0 0.00 0.00 0.00 67 1018.7
20181216043050 54 117 0.0 1.0 0.00 0.00 0.00 66 1018.5
20181216041629 54 117 0.0 1.0 0.00 0.00 0.00 67 1018.3
20181216040026 54 117 0.0 0.0 0.00 0.00 0.00 65 1018.3
20181216034532 55 117 0.0 1.0 0.00 0.00 0.00 63 1018.2
20181216033040 55 201 0.0 0.0 0.00 0.00 0.00 62 1018.1
20181216031539 56 203 0.0 0.0 0.00 0.00 0.00 62 1017.9
20181216030033 57 203 0.0 0.0 0.00 0.00 0.00 60 1017.7
20181216024542 58 203 0.0 0.0 0.00 0.00 0.00 58 1017.5
20181216023028 59 202 0.0 1.0 0.00 0.00 0.00 54 1017.5
20181216021526 60 201 0.0 0.0 0.00 0.00 0.00 52 1017.3
20181216020050 60 203 0.0 0.0 0.00 0.00 0.00 51 1017.2
20181216014526 61 203 0.0 1.0 0.00 0.00 0.00 51 1017.2
20181216013048 61 198 0.0 1.0 0.00 0.00 0.00 52 1016.9
20181216011554 62 215 0.0 0.0 0.00 0.00 0.00 49 1016.6
20181216010014 64 215 0.0 0.0 0.00 0.00 0.00 45 1016.5
20181216004536 67 215 0.0 0.0 0.00 0.00 0.00 41 1016.4
20181216003015 69 241 0.0 1.0 0.00 0.00 0.00 37 1016.2
20181216001544 72 211 0.0 1.0 0.00 0.00 0.00 26 1016.1
20181216000010 73 211 0.0 1.0 0.00 0.00 0.00 24 1015.9
20181215234516 73 273 0.0 2.0 0.00 0.00 0.00 21 1015.8
20181215233028 74 222 0.0 2.0 0.00 0.00 0.00 23 1015.8
20181215231507 75 229 1.0 3.0 0.00 0.00 0.00 22 1015.7
20181215230015 75 243 1.0 3.0 0.00 0.00 0.00 23 1015.6